Weather in Stariy Oskol

Russia / Belgorod Oblast     51°17′53″N   37°50′00″E
temp.,
°C
wind,
m/s
gust,
m/s
humid.,
%
clouds,
%
prec.,
mm/h
press.,
hPa
HPBL,
m
11 april, sun
sun1100:00+6n23520 0.0 102755
03:00+4n23575 0.0 102858
06:00+3n375964 0.0 1028138
09:00+8nne5948100 0.0 1029553
12:00+11ne5735100 0.0 10281094
15:00+13nne6831100 0.0 10271143
18:00+12ne6938100 0.0 1027832
21:00+9ne51250100 0.0 1028520
12 april, mon
mon1200:00+7ne51358100 0.0 1028481
03:00+7ne51072100 0.0 1027332
06:00+6ne41087100 0.0 1027318
09:00+10ene5982100 0.0 1026416
12:00+16e686060 0.0 1024694
15:00+20ese684269 0.0 10231243
18:00+20e4104248 0.0 1022488
21:00+15ese4135968 0.0 1023307
13 april, tue
tue1300:00+13ese31066100 0.0 1023214
03:00+11ese3107388 0.0 1024210
06:00+10ese3875100 0.0 1024173
09:00+14ese596116 0.0 1024415
12:00+19se610395 0.0 10231505
15:00+21se7102897 0.0 10222093
18:00+20ese59365 0.0 10211029
21:00+16se41151100 0.0 1022377
14 april, wed
wed1400:00+14e245884 0.0 102192
03:00+11e396799 0.0 1021217
06:00+11ese3967100 0.0 1021235
09:00+15ese584414 0.0 1020509
12:00+18se683667 0.0 10191180
15:00+20se563075 0.0 10172059
18:00+18ese4735100 0.0 1017869
21:00+14ese41245100 0.0 1016338
15 april, thu
thu1500:00+14s2750100 0.0 1016215
03:00+13ese355789 0.0 1016125
06:00+11sse2464100 0.0 1016116
09:00+14se1258100 0.0 1015313
12:00+18sse2341100 0.0 10141459
15:00+20se1335100 0.0 10132163
18:00+18wnw2346100 0.0 1013155
21:00+15nnw1152100 0.0 101229